Back to catalog

ENSHI XIDA SHANQUAN

AliveScienceSSO
NORAD 64962·PAYLOAD·🇨🇳 China

Launched Jul 29, 2025 from Jiuquan Satellite Launch Center

Loading…

Next Passes (next 24 hours)

TLE

FreshSource: Space-Track

Epoch: Sep 14, 2026, 11:57 UTC

1 64962U 25160A   26257.49825284  .00036242  00000-0  68901-3 0  9999
2 64962  97.3553 336.5720 0005692 228.7703 131.3057 15.48153415 63206

Track ENSHI XIDA SHANQUAN in real time with AllMySat

Download on the App Store